{"data":{"norad_id":67605,"epoch":"2026-09-19T10:33:26.652384Z","epoch_age_seconds":161280,"freshness":"FRESH","line1":"1 67605U 26018S   26262.43989181  .00012338  00000+0  38376-3 0  9998","line2":"2 67605  97.2858 325.8493 0000623  87.8824 272.2490 15.33454467 37027","mean_motion":15.33454467,"eccentricity":6.23e-5,"inclination_deg":97.2858,"raan_deg":325.8493,"arg_perigee_deg":87.8824,"mean_anomaly_deg":272.249,"bstar":0.00038376,"rev_number":3702,"period_min":93.905624913478,"perigee_km":465.08864797158,"apogee_km":465.94136701171,"semimajor_km":6843.6520074916,"source":"CELESTRAK","updated_at":"2026-09-20T09:00:43.606267Z"}}